When you browse on this site, cookies collect data to enhance your experience and personalize the content and advertising you see.
Visit our Privacy Policy to learn more. By continuing to use the site, you agree to this use of cookies and data.
  • în România
  • Lista ţărilor
  • Pe 7 zile
  • Temperatura apei
  • Hartă satelitară
  • Meteo pe hartă
  • Widget-uri
  • user-avatar
    Intrare

    Meteo pe oră la Bolshaya Ivanovka

    Astăzi, 21 Mai, Marţi

    Timp Temperatura Precipitaţii Vânt Presiune Umiditate
    00:00 +8°C° 0 mm 1 m/s 739 mmHg 67%
    01:00 +8°C° 0 mm 1 m/s 740 mmHg 68%
    02:00 +7°C° 0 mm 1 m/s 740 mmHg 69%
    03:00 +9°C° 0 mm 1 m/s 740 mmHg 65%
    04:00 +9°C° 0 mm 1 m/s 740 mmHg 64%
    05:00 +10°C° 0 mm 1 m/s 740 mmHg 64%
    06:00 +11°C° 0 mm 1 m/s 740 mmHg 64%
    07:00 +12°C° 0 mm 1 m/s 741 mmHg 60%
    08:00 +14°C° 0 mm 1 m/s 741 mmHg 57%
    09:00 +15°C° 0 mm 1 m/s 741 mmHg 52%
    10:00 +16°C° 0 mm 1 m/s 741 mmHg 50%
    11:00 +16°C° 0 mm 1 m/s 741 mmHg 47%
    12:00 +17°C° 0 mm 2 m/s 741 mmHg 45%
    13:00 +18°C° 0 mm 1 m/s 741 mmHg 44%
    14:00 +19°C° 0 mm 1 m/s 741 mmHg 44%
    15:00 +20°C° 0 mm 1 m/s 740 mmHg 48%
    16:00 +20°C° 0 mm 1 m/s 740 mmHg 49%
    17:00 +20°C° 0 mm 1 m/s 740 mmHg 50%
    18:00 +19°C° 0 mm 2 m/s 739 mmHg 51%
    19:00 +18°C° 0 mm 1 m/s 739 mmHg 56%
    20:00 +15°C° 0 mm 1 m/s 739 mmHg 60%
    21:00 +13°C° 0 mm 1 m/s 739 mmHg 64%
    22:00 +13°C° 0 mm 1 m/s 739 mmHg 66%
    23:00 +13°C° 0 mm 1 m/s 739 mmHg 67%

    Mâine, 22 Mai, Miercuri

    Timp Temperatura Precipitaţii Vânt Presiune Umiditate
    00:00 +13°C° 0 mm 2 m/s 739 mmHg 68%
    01:00 +12°C° 0 mm 2 m/s 739 mmHg 68%
    02:00 +12°C° 0 mm 2 m/s 739 mmHg 69%
    03:00 +11°C° 0 mm 3 m/s 739 mmHg 70%
    04:00 +11°C° 0 mm 3 m/s 739 mmHg 67%
    05:00 +12°C° 0 mm 4 m/s 738 mmHg 64%
    06:00 +12°C° 0 mm 4 m/s 738 mmHg 61%
    07:00 +14°C° 0 mm 4 m/s 738 mmHg 58%
    08:00 +17°C° 0 mm 4 m/s 738 mmHg 54%
    09:00 +19°C° 0 mm 4 m/s 738 mmHg 50%
    10:00 +20°C° 0 mm 4 m/s 738 mmHg 48%
    11:00 +21°C° 0 mm 4 m/s 737 mmHg 45%
    12:00 +22°C° 0 mm 5 m/s 737 mmHg 43%
    13:00 +22°C° 0 mm 5 m/s 737 mmHg 44%
    14:00 +22°C° 0 mm 5 m/s 736 mmHg 45%
    15:00 +23°C° 0 mm 6 m/s 736 mmHg 46%
    16:00 +22°C° 0 mm 5 m/s 736 mmHg 50%
    17:00 +21°C° 0 mm 4 m/s 736 mmHg 55%
    18:00 +20°C° 0 mm 4 m/s 735 mmHg 59%
    19:00 +19°C° 0 mm 3 m/s 735 mmHg 61%
    20:00 +18°C° 0 mm 3 m/s 735 mmHg 62%
    21:00 +16°C° 0 mm 3 m/s 735 mmHg 64%
    22:00 +16°C° 0 mm 3 m/s 735 mmHg 64%
    23:00 +14°C° 0 mm 3 m/s 735 mmHg 64%

    Poimâine, 23 Mai, Joi

    Timp Temperatura Precipitaţii Vânt Presiune Umiditate
    00:00 +13°C° 0 mm 3 m/s 734 mmHg 65%
    01:00 +12°C° 0 mm 3 m/s 734 mmHg 63%
    02:00 +12°C° 0 mm 3 m/s 734 mmHg 61%
    03:00 +11°C° 0 mm 3 m/s 733 mmHg 59%
    04:00 +11°C° 0 mm 3 m/s 733 mmHg 60%
    05:00 +12°C° 0 mm 3 m/s 733 mmHg 60%
    06:00 +13°C° 0 mm 3 m/s 733 mmHg 61%
    07:00 +14°C° 0 mm 3 m/s 732 mmHg 59%
    08:00 +17°C° 0 mm 4 m/s 732 mmHg 58%
    09:00 +19°C° 0 mm 4 m/s 732 mmHg 56%
    10:00 +19°C° 0 mm 4 m/s 732 mmHg 55%
    11:00 +20°C° 0 mm 5 m/s 731 mmHg 54%
    12:00 +21°C° 0 mm 5 m/s 731 mmHg 53%
    13:00 +21°C° 0 mm 5 m/s 731 mmHg 55%
    14:00 +21°C° 0 mm 5 m/s 730 mmHg 57%
    15:00 +21°C° 0 mm 5 m/s 730 mmHg 59%
    16:00 +21°C° 0.1 mm 5 m/s 729 mmHg 63%
    17:00 +20°C° 0.1 mm 4 m/s 729 mmHg 66%
    18:00 +19°C° 0.1 mm 3 m/s 729 mmHg 70%
    19:00 +18°C° 0 mm 3 m/s 729 mmHg 75%
    20:00 +17°C° 0 mm 2 m/s 729 mmHg 81%
    21:00 +15°C° 0 mm 1 m/s 728 mmHg 87%
    22:00 +15°C° 0 mm 1 m/s 728 mmHg 88%
    23:00 +14°C° 0 mm 1 m/s 728 mmHg 90%

    24 Mai, Vineri

    Timp Temperatura Precipitaţii Vânt Presiune Umiditate
    00:00 +14°C° 0 mm 2 m/s 728 mmHg 91%
    01:00 +14°C° 0 mm 2 m/s 728 mmHg 92%
    02:00 +14°C° 0 mm 2 m/s 728 mmHg 92%
    03:00 +14°C° 0 mm 2 m/s 728 mmHg 93%
    04:00 +14°C° 0 mm 2 m/s 729 mmHg 90%
    05:00 +15°C° 0 mm 2 m/s 729 mmHg 88%
    06:00 +16°C° 0 mm 3 m/s 730 mmHg 85%
    07:00 +17°C° 0.1 mm 3 m/s 730 mmHg 82%
    08:00 +18°C° 0.1 mm 4 m/s 731 mmHg 78%
    09:00 +19°C° 0.1 mm 5 m/s 731 mmHg 75%
    10:00 +19°C° 0.1 mm 5 m/s 731 mmHg 71%
    11:00 +19°C° 0.1 mm 5 m/s 732 mmHg 68%
    12:00 +19°C° 0.1 mm 5 m/s 732 mmHg 64%
    13:00 +20°C° 0 mm 4 m/s 732 mmHg 59%
    14:00 +21°C° 0 mm 4 m/s 733 mmHg 54%
    15:00 +21°C° 0 mm 4 m/s 733 mmHg 48%
    16:00 +21°C° 0 mm 4 m/s 733 mmHg 50%
    17:00 +20°C° 0 mm 3 m/s 733 mmHg 52%
    18:00 +19°C° 0 mm 3 m/s 734 mmHg 54%
    19:00 +17°C° 0 mm 3 m/s 734 mmHg 58%
    20:00 +14°C° 0 mm 3 m/s 734 mmHg 62%
    21:00 +12°C° 0 mm 3 m/s 735 mmHg 66%
    22:00 +11°C° 0 mm 3 m/s 735 mmHg 65%
    23:00 +10°C° 0 mm 3 m/s 735 mmHg 63%

    25 Mai, Sâmbătă

    Timp Temperatura Precipitaţii Vânt Presiune Umiditate
    00:00 +9°C° 0 mm 3 m/s 735 mmHg 62%
    01:00 +8°C° 0 mm 4 m/s 735 mmHg 62%
    02:00 +8°C° 0 mm 4 m/s 735 mmHg 62%
    03:00 +7°C° 0 mm 4 m/s 735 mmHg 61%
    04:00 +8°C° 0 mm 5 m/s 735 mmHg 64%
    05:00 +8°C° 0 mm 5 m/s 735 mmHg 66%
    06:00 +9°C° 0 mm 6 m/s 736 mmHg 68%
    07:00 +9°C° 0.1 mm 6 m/s 736 mmHg 67%
    08:00 +10°C° 0.1 mm 6 m/s 735 mmHg 65%
    09:00 +11°C° 0.1 mm 6 m/s 735 mmHg 63%
    10:00 +13°C° 0.4 mm 6 m/s 735 mmHg 64%
    11:00 +14°C° 0.4 mm 6 m/s 735 mmHg 64%
    12:00 +15°C° 0.4 mm 6 m/s 735 mmHg 65%
    13:00 +16°C° 0 mm 6 m/s 734 mmHg 64%
    14:00 +19°C° 0 mm 6 m/s 734 mmHg 62%
    15:00 +21°C° 0 mm 6 m/s 733 mmHg 61%
    16:00 +21°C° 0.1 mm 6 m/s 733 mmHg 64%
    17:00 +20°C° 0.1 mm 6 m/s 733 mmHg 67%
    18:00 +20°C° 0.1 mm 5 m/s 732 mmHg 71%
    19:00 +19°C° 0.8 mm 5 m/s 732 mmHg 76%
    20:00 +17°C° 0.8 mm 5 m/s 731 mmHg 81%
    21:00 +17°C° 0.8 mm 4 m/s 731 mmHg 86%
    22:00 +17°C° 1 mm 4 m/s 731 mmHg 86%
    23:00 +15°C° 1 mm 4 m/s 731 mmHg 87%

    26 Mai, Duminică

    Timp Temperatura Precipitaţii Vânt Presiune Umiditate
    00:00 +15°C° 1 mm 4 m/s 730 mmHg 87%
    01:00 +16°C° 0.4 mm 3 m/s 730 mmHg 86%
    02:00 +14°C° 0.4 mm 3 m/s 730 mmHg 85%
    03:00 +14°C° 0.4 mm 3 m/s 729 mmHg 84%
    04:00 +14°C° 0.3 mm 3 m/s 729 mmHg 85%
    05:00 +16°C° 0.3 mm 3 m/s 729 mmHg 87%
    06:00 +16°C° 0.3 mm 3 m/s 729 mmHg 88%
    07:00 +17°C° 0 mm 4 m/s 729 mmHg 82%
    08:00 +19°C° 0 mm 6 m/s 728 mmHg 76%
    09:00 +20°C° 0 mm 7 m/s 728 mmHg 69%
    10:00 +20°C° 0 mm 7 m/s 728 mmHg 69%
    11:00 +20°C° 0 mm 8 m/s 727 mmHg 70%
    12:00 +21°C° 0 mm 8 m/s 727 mmHg 70%
    13:00 +21°C° 0.3 mm 8 m/s 727 mmHg 69%
    14:00 +22°C° 0.3 mm 8 m/s 726 mmHg 67%
    15:00 +23°C° 0.3 mm 8 m/s 726 mmHg 66%
    16:00 +22°C° 0.4 mm 7 m/s 726 mmHg 68%
    17:00 +21°C° 0.4 mm 5 m/s 726 mmHg 70%
    18:00 +20°C° 0.4 mm 4 m/s 726 mmHg 72%
    19:00 +19°C° 0 mm 4 m/s 726 mmHg 77%
    20:00 +17°C° 0 mm 3 m/s 726 mmHg 82%
    21:00 +15°C° 0 mm 2 m/s 726 mmHg 86%
    22:00 +15°C° 0 mm 2 m/s 726 mmHg 88%
    23:00 +15°C° 0 mm 2 m/s 726 mmHg 89%
    Arată mai mult